Time,TemperatureF,DewpointF,PressureIn,WindDirection,WindDirectionDegrees,WindSpeedMPH,WindSpeedGustMPH,Humidity,HourlyPrecipIn,Conditions,Clouds,dailyrainin,SoftwareType,DateUTC
2013-01-07 00:00:00,38.3,32.4,30.17,SSW,208,2.0,6.0,79,-0.06,,,0.00,Weather View 32 v70,2013-01-07 05:00:00,
2013-01-07 00:10:00,38.6,32.6,30.17,SE,143,4.0,5.0,79,-0.06,,,0.00,Weather View 32 v70,2013-01-07 05:10:00,
2013-01-07 00:15:00,38.6,32.8,30.17,SSW,211,1.0,5.0,80,-0.06,,,0.00,Weather View 32 v70,2013-01-07 05:15:00,
2013-01-07 00:25:00,38.6,32.5,30.17,SW,225,5.0,6.0,79,-0.06,,,0.00,Weather View 32 v70,2013-01-07 05:25:00,
2013-01-07 00:30:00,39.3,32.6,30.18,WSW,242,3.0,6.0,77,-0.06,,,0.00,Weather View 32 v70,2013-01-07 05:30:00,
2013-01-07 00:37:00,40.1,32.5,30.18,WSW,255,8.0,9.0,74,-0.06,,,0.00,Weather View 32 v70,2013-01-07 05:37:00,
2013-01-07 00:45:00,41.6,32.6,30.18,West,281,5.0,10.0,70,-0.06,,,0.00,Weather View 32 v70,2013-01-07 05:45:00,
2013-01-07 00:55:00,41.8,32.6,30.18,WNW,290,7.0,10.0,70,-0.06,,,0.00,Weather View 32 v70,2013-01-07 05:55:00,
2013-01-07 01:05:00,41.9,32.6,30.19,WSW,243,3.0,10.0,69,0.00,,,0.00,Weather View 32 v70,2013-01-07 06:05:00,
2013-01-07 01:10:00,41.9,32.5,30.19,West,280,5.0,10.0,69,0.00,,,0.00,Weather View 32 v70,2013-01-07 06:10:00,
2013-01-07 01:15:00,41.7,32.1,30.19,WNW,285,5.0,12.0,68,0.00,,,0.00,Weather View 32 v70,2013-01-07 06:15:00,
2013-01-07 01:25:00,42.1,32.1,30.19,NW,311,3.0,13.0,68,0.00,,,0.00,Weather View 32 v70,2013-01-07 06:25:00,
2013-01-07 01:30:00,41.9,32.0,30.20,WSW,255,7.0,14.0,68,0.00,,,0.00,Weather View 32 v70,2013-01-07 06:30:00,
2013-01-07 01:35:00,41.9,32.0,30.21,West,278,6.0,14.0,68,0.00,,,0.00,Weather View 32 v70,2013-01-07 06:35:00,
2013-01-07 01:40:00,42.0,32.1,30.21,NW,308,6.0,14.0,68,0.00,,,0.00,Weather View 32 v70,2013-01-07 06:40:00,
2013-01-07 01:50:00,41.7,31.8,30.21,WNW,302,5.0,14.0,68,0.00,,,0.00,Weather View 32 v70,2013-01-07 06:50:00,
2013-01-07 01:55:00,41.6,31.7,30.21,WNW,291,4.0,14.0,68,0.00,,,0.00,Weather View 32 v70,2013-01-07 06:55:00,
2013-01-07 02:00:00,41.4,31.6,30.22,WNW,290,5.0,14.0,68,0.00,,,0.00,Weather View 32 v70,2013-01-07 07:00:00,
2013-01-07 02:05:00,41.4,31.6,30.22,WNW,302,3.0,14.0,68,0.00,,,0.00,Weather View 32 v70,2013-01-07 07:05:00,
2013-01-07 02:15:00,41.1,31.5,30.23,NW,319,6.0,14.0,69,0.00,,,0.00,Weather View 32 v70,2013-01-07 07:15:00,
2013-01-07 02:20:00,40.9,31.5,30.23,WNW,290,3.0,14.0,69,0.00,,,0.00,Weather View 32 v70,2013-01-07 07:20:00,
2013-01-07 02:25:00,40.8,31.6,30.23,NW,315,4.0,14.0,69,0.00,,,0.00,Weather View 32 v70,2013-01-07 07:25:00,
2013-01-07 02:30:00,40.9,31.8,30.23,WNW,294,3.0,13.0,70,0.00,,,0.00,Weather View 32 v70,2013-01-07 07:30:00,
2013-01-07 02:35:00,40.9,31.9,30.23,West,281,0.0,11.0,70,0.00,,,0.00,Weather View 32 v70,2013-01-07 07:35:00,
2013-01-07 02:45:00,40.6,31.9,30.24,North,11,0.0,10.0,71,0.00,,,0.00,Weather View 32 v70,2013-01-07 07:45:00,
2013-01-07 02:50:00,40.5,31.9,30.24,NNE,13,3.0,8.0,71,0.00,,,0.00,Weather View 32 v70,2013-01-07 07:50:00,
2013-01-07 02:55:00,40.1,31.6,30.24,North,356,2.0,7.0,72,0.00,,,0.00,Weather View 32 v70,2013-01-07 07:55:00,
2013-01-07 03:00:00,40.2,31.7,30.24,North,356,2.0,7.0,72,0.00,,,0.00,Weather View 32 v70,2013-01-07 08:00:00,
2013-01-07 03:10:00,39.9,31.6,30.24,NW,318,3.0,7.0,72,0.00,,,0.00,Weather View 32 v70,2013-01-07 08:10:00,
2013-01-07 03:15:00,39.9,31.5,30.24,WNW,301,4.0,7.0,72,0.00,,,0.00,Weather View 32 v70,2013-01-07 08:15:00,
2013-01-07 03:20:00,39.9,31.6,30.24,NW,309,3.0,7.0,72,0.00,,,0.00,Weather View 32 v70,2013-01-07 08:20:00,
2013-01-07 03:30:00,39.8,31.6,30.24,NW,314,6.0,8.0,72,0.00,,,0.00,Weather View 32 v70,2013-01-07 08:30:00,
2013-01-07 03:35:00,39.8,31.7,30.25,NW,307,3.0,8.0,73,0.00,,,0.00,Weather View 32 v70,2013-01-07 08:35:00,
2013-01-07 03:40:00,39.8,31.6,30.25,NW,318,2.0,8.0,72,0.00,,,0.00,Weather View 32 v70,2013-01-07 08:40:00,
2013-01-07 03:45:00,39.8,31.5,30.25,WSW,243,0.0,8.0,72,0.00,,,0.00,Weather View 32 v70,2013-01-07 08:45:00,
2013-01-07 03:50:00,39.8,31.4,30.26,West,269,3.0,8.0,72,0.00,,,0.00,Weather View 32 v70,2013-01-07 08:50:00,
2013-01-07 04:00:00,39.8,31.5,30.26,West,271,3.0,8.0,72,0.00,,,0.00,Weather View 32 v70,2013-01-07 09:00:00,
2013-01-07 04:10:00,39.7,31.4,30.26,WNW,291,0.0,8.0,72,0.00,,,0.00,Weather View 32 v70,2013-01-07 09:10:00,
2013-01-07 04:15:00,39.6,31.4,30.26,SW,224,2.0,8.0,72,0.00,,,0.00,Weather View 32 v70,2013-01-07 09:15:00,
2013-01-07 04:20:00,39.6,31.4,30.26,ENE,65,0.0,8.0,72,0.00,,,0.00,Weather View 32 v70,2013-01-07 09:20:00,
2013-01-07 04:30:00,39.4,31.7,30.26,WSW,238,1.0,8.0,74,0.00,,,0.00,Weather View 32 v70,2013-01-07 09:30:00,
2013-01-07 04:35:00,39.1,31.7,30.26,South,191,1.0,6.0,75,0.00,,,0.00,Weather View 32 v70,2013-01-07 09:35:00,
2013-01-07 04:40:00,39.0,31.4,30.26,West,280,2.0,5.0,74,0.00,,,0.00,Weather View 32 v70,2013-01-07 09:40:00,
2013-01-07 04:45:00,38.9,31.3,30.27,West,273,8.0,10.0,74,0.00,,,0.00,Weather View 32 v70,2013-01-07 09:45:00,
2013-01-07 04:55:00,39.3,30.5,30.27,NW,305,3.0,11.0,71,0.00,,,0.00,Weather View 32 v70,2013-01-07 09:55:00,
2013-01-07 05:00:00,39.3,30.5,30.28,West,263,6.0,11.0,71,0.00,,,0.00,Weather View 32 v70,2013-01-07 10:00:00,
2013-01-07 05:10:00,39.3,30.4,30.28,WNW,290,6.0,11.0,70,0.00,,,0.00,Weather View 32 v70,2013-01-07 10:10:00,
2013-01-07 05:20:00,39.2,29.9,30.28,West,273,3.0,11.0,69,0.00,,,0.00,Weather View 32 v70,2013-01-07 10:20:00,
2013-01-07 05:30:00,39.2,30.0,30.29,West,280,4.0,11.0,69,0.00,,,0.00,Weather View 32 v70,2013-01-07 10:30:00,
2013-01-07 05:35:00,39.0,29.8,30.29,WNW,288,5.0,11.0,69,0.00,,,0.00,Weather View 32 v70,2013-01-07 10:35:00,
2013-01-07 05:45:00,39.0,30.1,30.30,SSW,193,2.0,11.0,70,0.00,,,0.00,Weather View 32 v70,2013-01-07 10:45:00,
2013-01-07 05:50:00,38.8,29.9,30.30,West,274,2.0,9.0,70,0.00,,,0.00,Weather View 32 v70,2013-01-07 10:50:00,
2013-01-07 05:55:00,38.8,30.0,30.30,WNW,285,3.0,9.0,70,0.00,,,0.00,Weather View 32 v70,2013-01-07 10:55:00,
2013-01-07 06:00:00,38.7,30.1,30.31,West,270,3.0,9.0,71,0.00,,,0.00,Weather View 32 v70,2013-01-07 11:00:00,
2013-01-07 06:10:00,38.5,30.0,30.31,WNW,295,2.0,9.0,71,0.00,,,0.00,Weather View 32 v70,2013-01-07 11:10:00,
2013-01-07 06:15:00,38.5,30.0,30.32,West,266,7.0,10.0,71,0.00,,,0.00,Weather View 32 v70,2013-01-07 11:15:00,
2013-01-07 06:20:00,38.5,29.9,30.32,NW,316,4.0,10.0,71,0.00,,,0.00,Weather View 32 v70,2013-01-07 11:20:00,
2013-01-07 06:30:00,38.4,29.9,30.32,NW,307,6.0,10.0,71,0.00,,,0.00,Weather View 32 v70,2013-01-07 11:30:00,
2013-01-07 06:40:00,38.3,29.9,30.33,NW,315,4.0,10.0,72,0.00,,,0.00,Weather View 32 v70,2013-01-07 11:40:00,
2013-01-07 06:50:00,38.2,30.0,30.33,NW,319,3.0,10.0,72,0.00,,,0.00,Weather View 32 v70,2013-01-07 11:50:00,
2013-01-07 07:00:00,38.1,30.0,30.33,NNW,336,3.0,10.0,73,0.00,,,0.00,Weather View 32 v70,2013-01-07 12:00:00,
2013-01-07 07:05:00,38.0,30.1,30.33,NW,326,4.0,10.0,73,0.00,,,0.00,Weather View 32 v70,2013-01-07 12:05:00,
2013-01-07 07:15:00,38.0,30.2,30.34,NNW,329,3.0,10.0,73,0.00,,,0.00,Weather View 32 v70,2013-01-07 12:15:00,
2013-01-07 07:20:00,37.8,30.2,30.35,WNW,290,4.0,10.0,74,0.00,,,0.00,Weather View 32 v70,2013-01-07 12:20:00,
2013-01-07 07:25:00,37.8,30.2,30.35,WNW,302,5.0,10.0,74,0.00,,,0.00,Weather View 32 v70,2013-01-07 12:25:00,
2013-01-07 07:30:00,37.7,30.1,30.36,WNW,300,5.0,10.0,74,0.00,,,0.00,Weather View 32 v70,2013-01-07 12:30:00,
2013-01-07 07:35:00,37.7,30.2,30.36,WNW,285,4.0,10.0,74,0.00,,,0.00,Weather View 32 v70,2013-01-07 12:35:00,
2013-01-07 07:41:00,37.7,30.3,30.36,NW,316,5.0,10.0,75,0.00,,,0.00,Weather View 32 v70,2013-01-07 12:41:00,
2013-01-07 07:50:00,37.5,30.2,30.37,NNW,330,4.0,11.0,75,0.00,,,0.00,Weather View 32 v70,2013-01-07 12:50:00,
2013-01-07 07:55:00,37.6,30.4,30.38,NW,304,5.0,11.0,75,0.00,,,0.00,Weather View 32 v70,2013-01-07 12:55:00,
2013-01-07 08:00:00,37.4,30.3,30.38,NNW,343,2.0,11.0,75,0.00,,,0.00,Weather View 32 v70,2013-01-07 13:00:00,
2013-01-07 08:10:00,37.4,30.3,30.38,NW,321,0.0,11.0,75,0.00,,,0.00,Weather View 32 v70,2013-01-07 13:10:00,
2013-01-07 08:15:00,37.5,30.3,30.38,NW,311,4.0,11.0,75,0.00,,,0.00,Weather View 32 v70,2013-01-07 13:15:00,
2013-01-07 08:20:00,37.4,30.2,30.38,NNW,335,5.0,11.0,75,0.00,,,0.00,Weather View 32 v70,2013-01-07 13:20:00,
2013-01-07 08:30:00,37.4,30.2,30.39,NW,316,6.0,11.0,75,0.00,,,0.00,Weather View 32 v70,2013-01-07 13:30:00,
2013-01-07 08:40:00,37.5,30.4,30.40,North,352,3.0,11.0,75,0.00,,,0.00,Weather View 32 v70,2013-01-07 13:40:00,
2013-01-07 08:50:00,37.7,30.8,30.41,NW,318,6.0,9.0,76,0.00,,,0.00,Weather View 32 v70,2013-01-07 13:50:00,
2013-01-07 08:55:00,37.7,30.6,30.42,West,281,0.0,9.0,76,0.00,,,0.00,Weather View 32 v70,2013-01-07 13:55:00,
2013-01-07 09:00:00,37.7,30.7,30.42,North,350,2.0,8.0,76,0.00,,,0.00,Weather View 32 v70,2013-01-07 14:00:00,
2013-01-07 09:10:00,37.9,30.8,30.42,NNW,328,1.0,8.0,75,0.00,,,0.00,Weather View 32 v70,2013-01-07 14:10:00,
2013-01-07 09:15:00,38.0,30.9,30.42,NNW,332,3.0,8.0,76,0.00,,,0.00,Weather View 32 v70,2013-01-07 14:15:00,
2013-01-07 09:20:00,38.1,30.8,30.42,WNW,283,5.0,8.0,75,0.00,,,0.00,Weather View 32 v70,2013-01-07 14:20:00,
2013-01-07 09:30:00,38.3,30.0,30.42,NW,305,8.0,10.0,72,0.00,,,0.00,Weather View 32 v70,2013-01-07 14:30:00,
2013-01-07 09:35:00,38.3,29.9,30.43,NW,326,7.0,11.0,72,0.00,,,0.00,Weather View 32 v70,2013-01-07 14:35:00,
2013-01-07 09:40:00,38.3,29.9,30.43,NW,307,5.0,11.0,71,0.00,,,0.00,Weather View 32 v70,2013-01-07 14:40:00,
2013-01-07 09:45:00,38.4,29.9,30.43,WNW,301,8.0,11.0,71,0.00,,,0.00,Weather View 32 v70,2013-01-07 14:45:00,
2013-01-07 09:50:00,38.3,29.8,30.44,WNW,301,6.0,11.0,71,0.00,,,0.00,Weather View 32 v70,2013-01-07 14:50:00,
2013-01-07 09:55:00,38.4,29.9,30.44,WNW,288,1.0,11.0,71,0.00,,,0.00,Weather View 32 v70,2013-01-07 14:55:00,
2013-01-07 10:00:00,38.5,30.0,30.44,West,277,3.0,11.0,71,0.00,,,0.00,Weather View 32 v70,2013-01-07 15:00:00,
2013-01-07 10:10:00,38.5,29.8,30.45,NW,309,4.0,11.0,71,0.00,,,0.00,Weather View 32 v70,2013-01-07 15:10:00,
2013-01-07 10:15:00,38.5,29.8,30.45,NW,315,5.0,11.0,71,0.00,,,0.00,Weather View 32 v70,2013-01-07 15:15:00,
2013-01-07 10:25:00,38.3,29.7,30.46,NW,305,6.0,11.0,71,0.00,,,0.00,Weather View 32 v70,2013-01-07 15:25:00,
2013-01-07 10:35:00,38.5,29.8,30.46,NW,309,6.0,11.0,71,0.00,,,0.00,Weather View 32 v70,2013-01-07 15:35:00,
2013-01-07 10:40:00,38.5,29.7,30.46,West,276,4.0,11.0,70,0.00,,,0.00,Weather View 32 v70,2013-01-07 15:40:00,
2013-01-07 10:49:00,38.7,29.6,30.46,NW,307,7.0,10.0,70,0.00,,,0.00,Weather View 32 v70,2013-01-07 15:49:00,
2013-01-07 10:54:00,38.8,29.6,30.46,West,263,6.0,10.0,69,0.00,,,0.00,Weather View 32 v70,2013-01-07 15:54:00,
2013-01-07 11:00:00,38.8,29.8,30.47,West,269,7.0,10.0,70,0.00,,,0.00,Weather View 32 v70,2013-01-07 16:00:00,
2013-01-07 11:09:00,38.8,29.5,30.46,West,273,4.0,10.0,69,0.00,,,0.00,Weather View 32 v70,2013-01-07 16:09:00,
2013-01-07 11:14:00,38.8,29.5,30.46,WNW,297,5.0,10.0,69,0.00,,,0.00,Weather View 32 v70,2013-01-07 16:14:00,
2013-01-07 11:20:00,39.0,29.7,30.45,West,278,4.0,10.0,69,0.00,,,0.00,Weather View 32 v70,2013-01-07 16:20:00,
2013-01-07 11:24:00,39.1,29.5,30.45,WNW,294,4.0,10.0,68,0.00,,,0.00,Weather View 32 v70,2013-01-07 16:24:00,
2013-01-07 11:29:00,39.3,29.6,30.45,NNW,329,5.0,10.0,68,0.00,,,0.00,Weather View 32 v70,2013-01-07 16:29:00,
2013-01-07 11:35:00,39.5,29.8,30.45,WNW,290,6.0,10.0,68,0.00,,,0.00,Weather View 32 v70,2013-01-07 16:35:00,
2013-01-07 11:40:00,39.4,29.2,30.44,NW,305,5.0,10.0,67,0.00,,,0.00,Weather View 32 v70,2013-01-07 16:40:00,
2013-01-07 11:50:00,39.2,29.0,30.44,WNW,302,4.0,10.0,67,0.00,,,0.00,Weather View 32 v70,2013-01-07 16:50:00,
2013-01-07 11:55:00,39.3,29.5,30.43,NW,309,4.0,10.0,68,0.00,,,0.00,Weather View 32 v70,2013-01-07 16:55:00,
2013-01-07 12:00:00,39.4,29.3,30.43,NW,304,1.0,10.0,67,0.00,,,0.00,Weather View 32 v70,2013-01-07 17:00:00,
2013-01-07 12:09:00,39.6,29.8,30.43,SE,127,1.0,10.0,68,0.00,,,0.00,Weather View 32 v70,2013-01-07 17:09:00,
2013-01-07 12:15:00,39.7,29.9,30.43,NE,49,1.0,10.0,68,0.00,,,0.00,Weather View 32 v70,2013-01-07 17:15:00,
2013-01-07 12:20:00,39.8,30.0,30.43,NE,42,4.0,10.0,68,0.00,,,0.00,Weather View 32 v70,2013-01-07 17:20:00,
2013-01-07 12:24:00,40.1,30.2,30.43,WNW,295,1.0,7.0,68,0.00,,,0.00,Weather View 32 v70,2013-01-07 17:24:00,
2013-01-07 12:29:00,40.2,29.9,30.43,WNW,300,4.0,7.0,66,0.00,,,0.00,Weather View 32 v70,2013-01-07 17:29:00,
2013-01-07 12:34:00,40.2,30.0,30.42,NNE,23,1.0,7.0,67,0.00,,,0.00,Weather View 32 v70,2013-01-07 17:34:00,
2013-01-07 12:40:00,40.3,30.1,30.43,NNE,28,0.0,6.0,67,0.00,,,0.00,Weather View 32 v70,2013-01-07 17:40:00,
2013-01-07 12:49:00,40.7,30.6,30.42,NNE,21,6.0,7.0,67,0.00,,,0.00,Weather View 32 v70,2013-01-07 17:49:00,
2013-01-07 12:55:00,40.9,30.8,30.42,NNE,25,4.0,7.0,67,0.00,,,0.00,Weather View 32 v70,2013-01-07 17:55:00,
2013-01-07 13:00:00,41.1,30.7,30.42,NNW,328,1.0,7.0,66,0.00,,,0.00,Weather View 32 v70,2013-01-07 18:00:00,
2013-01-07 13:09:00,41.4,30.5,30.42,North,359,6.0,9.0,65,0.00,,,0.00,Weather View 32 v70,2013-01-07 18:09:00,
2013-01-07 13:14:00,41.1,30.8,30.42,ENE,76,2.0,10.0,67,0.00,,,0.00,Weather View 32 v70,2013-01-07 18:14:00,
2013-01-07 13:20:00,41.0,30.6,30.41,North,354,2.0,10.0,66,0.00,,,0.00,Weather View 32 v70,2013-01-07 18:20:00,
2013-01-07 13:29:00,40.6,30.4,30.41,NW,308,1.0,10.0,67,0.00,,,0.00,Weather View 32 v70,2013-01-07 18:29:00,
2013-01-07 13:34:00,40.8,31.2,30.41,NE,41,5.0,10.0,68,0.00,,,0.00,Weather View 32 v70,2013-01-07 18:34:00,
2013-01-07 13:40:00,40.6,30.7,30.41,NE,39,1.0,10.0,68,0.00,,,0.00,Weather View 32 v70,2013-01-07 18:40:00,
2013-01-07 13:49:00,40.8,30.7,30.41,NE,44,0.0,10.0,67,0.00,,,0.00,Weather View 32 v70,2013-01-07 18:49:00,
2013-01-07 13:54:00,41.1,30.7,30.41,NE,42,4.0,10.0,66,0.00,,,0.00,Weather View 32 v70,2013-01-07 18:54:00,
2013-01-07 14:00:00,41.2,30.6,30.41,NNE,13,5.0,10.0,66,0.00,,,0.00,Weather View 32 v70,2013-01-07 19:00:00,
2013-01-07 14:09:00,41.3,30.4,30.41,West,278,4.0,10.0,65,0.00,,,0.00,Weather View 32 v70,2013-01-07 19:09:00,
2013-01-07 14:14:00,41.3,30.3,30.41,NW,312,3.0,8.0,65,0.00,,,0.00,Weather View 32 v70,2013-01-07 19:14:00,
2013-01-07 14:19:00,41.5,30.3,30.41,WNW,301,4.0,8.0,64,0.00,,,0.00,Weather View 32 v70,2013-01-07 19:19:00,
2013-01-07 14:29:00,41.4,29.9,30.41,North,7,4.0,8.0,63,0.00,,,0.00,Weather View 32 v70,2013-01-07 19:29:00,
2013-01-07 14:34:00,41.4,29.9,30.41,WNW,285,0.0,8.0,63,0.00,,,0.00,Weather View 32 v70,2013-01-07 19:34:00,
2013-01-07 14:39:00,41.7,30.1,30.41,West,273,1.0,6.0,63,0.00,,,0.00,Weather View 32 v70,2013-01-07 19:39:00,
2013-01-07 14:45:00,41.8,30.5,30.41,NNW,335,2.0,6.0,64,0.00,,,0.00,Weather View 32 v70,2013-01-07 19:45:00,
2013-01-07 14:54:00,42.1,30.1,30.41,NW,315,0.0,6.0,62,0.00,,,0.00,Weather View 32 v70,2013-01-07 19:54:00,
2013-01-07 14:59:00,42.5,30.7,30.41,WNW,283,3.0,6.0,63,0.00,,,0.00,Weather View 32 v70,2013-01-07 19:59:00,
2013-01-07 15:09:00,42.6,30.4,30.41,NW,325,2.0,6.0,62,0.00,,,0.00,Weather View 32 v70,2013-01-07 20:09:00,
2013-01-07 15:14:00,42.6,30.4,30.41,NW,309,1.0,6.0,62,0.00,,,0.00,Weather View 32 v70,2013-01-07 20:14:00,
2013-01-07 15:19:00,42.5,30.2,30.41,NW,315,0.0,6.0,62,0.00,,,0.00,Weather View 32 v70,2013-01-07 20:19:00,
2013-01-07 15:29:00,42.7,30.5,30.41,ENE,65,0.0,6.0,62,0.00,,,0.00,Weather View 32 v70,2013-01-07 20:29:00,
2013-01-07 15:34:00,43.0,30.9,30.40,ENE,65,0.0,6.0,62,0.00,,,0.00,Weather View 32 v70,2013-01-07 20:34:00,
2013-01-07 15:39:00,43.6,30.7,30.41,ENE,65,0.0,6.0,60,0.00,,,0.00,Weather View 32 v70,2013-01-07 20:39:00,
2013-01-07 15:46:00,44.2,31.1,30.41,SSW,208,0.0,6.0,60,0.00,,,0.00,Weather View 32 v70,2013-01-07 20:46:00,
2013-01-07 15:54:00,44.8,30.8,30.41,West,280,1.0,4.0,58,0.00,,,0.00,Weather View 32 v70,2013-01-07 20:54:00,
2013-01-07 15:59:00,45.0,30.7,30.41,West,271,0.0,4.0,57,0.00,,,0.00,Weather View 32 v70,2013-01-07 20:59:00,
2013-01-07 16:04:00,45.0,31.0,30.41,East,89,0.0,4.0,58,0.00,,,0.00,Weather View 32 v70,2013-01-07 21:04:00,
2013-01-07 16:14:00,44.7,30.8,30.41,East,89,0.0,3.0,58,0.00,,,0.00,Weather View 32 v70,2013-01-07 21:14:00,
2013-01-07 16:19:00,44.5,30.7,30.41,East,89,0.0,3.0,58,0.00,,,0.00,Weather View 32 v70,2013-01-07 21:19:00,
2013-01-07 16:24:00,44.6,30.7,30.41,East,89,0.0,3.0,58,0.00,,,0.00,Weather View 32 v70,2013-01-07 21:24:00,
2013-01-07 16:34:00,44.1,30.5,30.41,East,89,0.0,3.0,59,0.00,,,0.00,Weather View 32 v70,2013-01-07 21:34:00,
2013-01-07 16:39:00,43.8,30.5,30.41,NNW,328,0.0,3.0,59,0.00,,,0.00,Weather View 32 v70,2013-01-07 21:39:00,
2013-01-07 16:46:00,43.5,30.6,30.41,West,259,0.0,3.0,60,0.00,,,0.00,Weather View 32 v70,2013-01-07 21:46:00,
2013-01-07 16:54:00,42.5,30.2,30.41,NW,307,1.0,3.0,62,0.00,,,0.00,Weather View 32 v70,2013-01-07 21:54:00,
2013-01-07 16:59:00,42.1,30.2,30.41,NW,307,0.0,2.0,63,0.00,,,0.00,Weather View 32 v70,2013-01-07 21:59:00,
2013-01-07 17:09:00,41.4,30.0,30.41,NW,307,0.0,2.0,64,0.00,,,0.00,Weather View 32 v70,2013-01-07 22:09:00,
2013-01-07 17:14:00,40.9,30.0,30.41,NW,307,0.0,2.0,65,0.00,,,0.00,Weather View 32 v70,2013-01-07 22:14:00,
2013-01-07 17:19:00,40.5,29.9,30.41,NW,307,0.0,2.0,66,0.00,,,0.00,Weather View 32 v70,2013-01-07 22:19:00,
2013-01-07 17:29:00,39.4,29.5,30.42,NW,307,0.0,2.0,67,0.00,,,0.00,Weather View 32 v70,2013-01-07 22:29:00,
2013-01-07 17:34:00,39.1,29.4,30.41,NW,307,0.0,2.0,68,0.00,,,0.00,Weather View 32 v70,2013-01-07 22:34:00,
2013-01-07 17:39:00,38.6,29.2,30.42,NW,307,0.0,2.0,69,0.00,,,0.00,Weather View 32 v70,2013-01-07 22:39:00,
2013-01-07 17:47:00,38.3,29.2,30.41,NW,307,0.0,1.0,70,0.00,,,0.00,Weather View 32 v70,2013-01-07 22:47:00,
2013-01-07 17:54:00,37.3,28.7,30.41,NW,307,0.0,1.0,71,0.00,,,0.00,Weather View 32 v70,2013-01-07 22:54:00,
2013-01-07 17:59:00,36.8,28.6,30.41,NW,307,0.0,0.0,72,0.00,,,0.00,Weather View 32 v70,2013-01-07 22:59:00,
2013-01-07 18:04:00,36.4,28.6,30.41,NW,307,0.0,0.0,73,0.00,,,0.00,Weather View 32 v70,2013-01-07 23:04:00,
2013-01-07 18:09:00,36.1,28.4,30.41,NW,307,0.0,0.0,74,0.00,,,0.00,Weather View 32 v70,2013-01-07 23:09:00,
2013-01-07 18:14:00,35.7,28.4,30.41,NW,307,0.0,0.0,74,0.00,,,0.00,Weather View 32 v70,2013-01-07 23:14:00,
2013-01-07 18:25:00,35.3,28.4,30.41,NW,307,0.0,0.0,76,0.00,,,0.00,Weather View 32 v70,2013-01-07 23:25:00,
2013-01-07 18:35:00,34.9,28.5,30.41,SW,218,2.0,2.0,77,0.00,,,0.00,Weather View 32 v70,2013-01-07 23:35:00,
2013-01-07 18:44:00,34.2,28.2,30.41,South,173,0.0,3.0,79,0.00,,,0.00,Weather View 32 v70,2013-01-07 23:44:00,
2013-01-07 18:49:00,34.0,28.3,30.41,SSW,197,2.0,3.0,79,0.00,,,0.00,Weather View 32 v70,2013-01-07 23:49:00,
2013-01-07 18:54:00,33.7,28.0,30.41,South,177,3.0,3.0,80,0.00,,,0.00,Weather View 32 v70,2013-01-07 23:54:00,
2013-01-07 18:59:00,33.3,27.9,30.41,South,190,3.0,3.0,80,0.00,,,0.00,Weather View 32 v70,2013-01-07 23:59:00,
2013-01-07 19:09:00,32.8,28.0,30.42,South,188,3.0,4.0,82,0.00,,,0.00,Weather View 32 v70,2013-01-08 00:09:00,
2013-01-07 19:14:00,32.8,28.1,30.42,SSE,165,4.0,4.0,83,0.00,,,0.00,Weather View 32 v70,2013-01-08 00:14:00,
2013-01-07 19:19:00,32.6,28.2,30.42,SSE,160,4.0,5.0,84,0.00,,,0.00,Weather View 32 v70,2013-01-08 00:19:00,
2013-01-07 19:29:00,31.9,27.6,30.42,SSW,193,2.0,6.0,84,0.00,,,0.00,Weather View 32 v70,2013-01-08 00:29:00,
2013-01-07 19:34:00,31.8,27.7,30.42,SSW,204,3.0,6.0,85,0.00,,,0.00,Weather View 32 v70,2013-01-08 00:34:00,
2013-01-07 19:39:00,31.6,27.7,30.42,SW,217,2.0,6.0,85,0.00,,,0.00,Weather View 32 v70,2013-01-08 00:39:00,
2013-01-07 19:48:00,31.5,27.7,30.42,SW,221,2.0,6.0,86,0.00,,,0.00,Weather View 32 v70,2013-01-08 00:48:00,
2013-01-07 19:54:00,31.4,27.8,30.42,SE,132,0.0,6.0,86,0.00,,,0.00,Weather View 32 v70,2013-01-08 00:54:00,
2013-01-07 20:04:00,31.5,27.7,30.42,SSE,167,0.0,6.0,86,0.00,,,0.00,Weather View 32 v70,2013-01-08 01:04:00,
2013-01-07 20:09:00,31.5,27.8,30.41,SSE,167,0.0,6.0,86,0.00,,,0.00,Weather View 32 v70,2013-01-08 01:09:00,
2013-01-07 20:14:00,31.5,27.8,30.42,SSE,167,0.0,6.0,86,0.00,,,0.00,Weather View 32 v70,2013-01-08 01:14:00,
2013-01-07 20:24:00,31.0,27.4,30.41,SSE,167,0.0,6.0,86,0.00,,,0.00,Weather View 32 v70,2013-01-08 01:24:00,
2013-01-07 20:29:00,30.8,27.4,30.42,SSE,167,0.0,5.0,87,0.00,,,0.00,Weather View 32 v70,2013-01-08 01:29:00,
2013-01-07 20:39:00,30.6,27.5,30.42,SSE,167,0.0,4.0,88,0.00,,,0.00,Weather View 32 v70,2013-01-08 01:39:00,
2013-01-07 20:44:00,30.5,27.3,30.42,SSE,152,0.0,4.0,88,0.00,,,0.00,Weather View 32 v70,2013-01-08 01:44:00,
2013-01-07 20:54:00,30.3,27.2,30.42,SSE,166,3.0,5.0,88,0.00,,,0.00,Weather View 32 v70,2013-01-08 01:54:00,
2013-01-07 20:59:00,30.0,26.9,30.42,SSE,148,0.0,5.0,88,0.00,,,0.00,Weather View 32 v70,2013-01-08 01:59:00,
2013-01-07 21:04:00,29.6,26.5,30.42,SSE,148,0.0,5.0,88,0.00,,,0.00,Weather View 32 v70,2013-01-08 02:04:00,
2013-01-07 21:14:00,29.2,26.6,30.41,SSE,148,0.0,5.0,90,0.00,,,0.00,Weather View 32 v70,2013-01-08 02:14:00,
2013-01-07 21:19:00,29.2,26.6,30.41,SSE,148,0.0,5.0,90,0.00,,,0.00,Weather View 32 v70,2013-01-08 02:19:00,
2013-01-07 21:24:00,29.2,26.7,30.41,SSE,148,0.0,5.0,90,0.00,,,0.00,Weather View 32 v70,2013-01-08 02:24:00,
2013-01-07 21:29:00,29.2,26.8,30.41,SSE,148,0.0,5.0,91,0.00,,,0.00,Weather View 32 v70,2013-01-08 02:29:00,
2013-01-07 21:34:00,29.3,26.9,30.41,SSE,148,0.0,5.0,91,0.00,,,0.00,Weather View 32 v70,2013-01-08 02:34:00,
2013-01-07 21:39:00,29.4,27.0,30.40,SSE,148,0.0,5.0,91,0.00,,,0.00,Weather View 32 v70,2013-01-08 02:39:00,
2013-01-07 21:44:00,29.4,26.9,30.40,SSE,148,0.0,5.0,90,0.00,,,0.00,Weather View 32 v70,2013-01-08 02:44:00,
2013-01-07 21:54:00,29.1,26.6,30.40,SSE,148,0.0,4.0,90,0.00,,,0.00,Weather View 32 v70,2013-01-08 02:54:00,
2013-01-07 21:59:00,28.8,26.3,30.40,South,186,3.0,3.0,90,0.00,,,0.00,Weather View 32 v70,2013-01-08 02:59:00,
2013-01-07 22:09:00,28.5,26.2,30.40,SSE,152,0.0,4.0,91,0.00,,,0.00,Weather View 32 v70,2013-01-08 03:09:00,
2013-01-07 22:14:00,28.5,26.3,30.40,SSE,152,0.0,4.0,91,0.00,,,0.00,Weather View 32 v70,2013-01-08 03:14:00,
2013-01-07 22:19:00,28.4,26.1,30.40,SSE,152,0.0,4.0,91,0.00,,,0.00,Weather View 32 v70,2013-01-08 03:19:00,
2013-01-07 22:24:00,28.1,25.9,30.40,SSE,152,0.0,4.0,92,0.00,,,0.00,Weather View 32 v70,2013-01-08 03:24:00,
2013-01-07 22:34:00,28.2,26.2,30.40,SSE,152,0.0,4.0,92,0.00,,,0.00,Weather View 32 v70,2013-01-08 03:34:00,
2013-01-07 22:39:00,28.3,26.2,30.40,SSE,152,0.0,4.0,92,0.00,,,0.00,Weather View 32 v70,2013-01-08 03:39:00,
2013-01-07 22:49:00,28.0,25.9,30.39,SSE,152,0.0,4.0,92,0.00,,,0.00,Weather View 32 v70,2013-01-08 03:49:00,
2013-01-07 22:59:00,27.8,25.8,30.39,SSE,152,0.0,4.0,92,0.00,,,0.00,Weather View 32 v70,2013-01-08 03:59:00,
2013-01-07 23:04:00,27.8,25.9,30.39,SSE,152,0.0,0.0,92,0.00,,,0.00,Weather View 32 v70,2013-01-08 04:04:00,
2013-01-07 23:14:00,27.8,26.0,30.39,SSE,152,0.0,0.0,93,0.00,,,0.00,Weather View 32 v70,2013-01-08 04:14:00,
2013-01-07 23:19:00,27.8,25.9,30.39,SSE,152,0.0,0.0,93,0.00,,,0.00,Weather View 32 v70,2013-01-08 04:19:00,
2013-01-07 23:24:00,27.7,25.8,30.39,SSE,152,0.0,0.0,93,0.00,,,0.00,Weather View 32 v70,2013-01-08 04:24:00,
2013-01-07 23:34:00,27.4,25.6,30.39,SSE,152,0.0,0.0,93,0.00,,,0.00,Weather View 32 v70,2013-01-08 04:34:00,
2013-01-07 23:39:00,27.6,25.9,30.39,SSE,152,0.0,0.0,93,0.00,,,0.00,Weather View 32 v70,2013-01-08 04:39:00,
2013-01-07 23:44:00,27.5,25.7,30.39,SSE,152,0.0,0.0,93,0.00,,,0.00,Weather View 32 v70,2013-01-08 04:44:00,
2013-01-07 23:50:00,27.2,25.3,30.38,SSE,152,0.0,0.0,93,0.00,,,0.00,Weather View 32 v70,2013-01-08 04:50:00,
2013-01-07 23:59:00,27.1,25.5,30.39,SSE,152,0.0,0.0,94,0.00,,,0.00,Weather View 32 v70,2013-01-08 04:59:00,